When you browse on this site, cookies collect data to enhance your experience and personalize the content and advertising you see.
Visit our Privacy Policy to learn more. By continuing to use the site, you agree to this use of cookies and data.
  • Em Portugal
  • Lista de países
  • Para 7 dias
  • Temperatura da água
  • Mapas de satélite
  • Mapa do tempo
  • Widgets de tempo
  • user-avatar
    Iniciar Sessão

    Previsão horária em Starobeshevo

    Hoje, 26 Maio, Domingo

    Tempo Temperatura Precipitação Vento Pressão Humidade
    00:00 +17°C° 0.8 mm 4 m/s 744 mmHg 91%
    01:00 +17°C° 1.1 mm 4 m/s 744 mmHg 91%
    02:00 +17°C° 1.1 mm 4 m/s 744 mmHg 91%
    03:00 +17°C° 1.1 mm 4 m/s 744 mmHg 91%
    04:00 +17°C° 0.1 mm 4 m/s 744 mmHg 90%
    05:00 +17°C° 0.1 mm 4 m/s 745 mmHg 90%
    06:00 +17°C° 0.1 mm 4 m/s 745 mmHg 89%
    07:00 +18°C° 0.5 mm 4 m/s 745 mmHg 85%
    08:00 +19°C° 0.5 mm 4 m/s 745 mmHg 81%
    09:00 +20°C° 0.5 mm 4 m/s 745 mmHg 76%
    10:00 +21°C° 1 mm 4 m/s 746 mmHg 73%
    11:00 +21°C° 1 mm 4 m/s 746 mmHg 69%
    12:00 +22°C° 1 mm 4 m/s 746 mmHg 66%
    13:00 +23°C° 1 mm 4 m/s 746 mmHg 65%
    14:00 +23°C° 1 mm 4 m/s 746 mmHg 64%
    15:00 +23°C° 1 mm 4 m/s 746 mmHg 63%
    16:00 +23°C° 0.6 mm 4 m/s 746 mmHg 65%
    17:00 +23°C° 0.6 mm 4 m/s 746 mmHg 67%
    18:00 +23°C° 0.6 mm 4 m/s 746 mmHg 69%
    19:00 +22°C° 0.2 mm 4 m/s 747 mmHg 74%
    20:00 +20°C° 0.2 mm 4 m/s 747 mmHg 78%
    21:00 +19°C° 0.2 mm 3 m/s 747 mmHg 82%
    22:00 +19°C° 0.8 mm 3 m/s 748 mmHg 84%
    23:00 +18°C° 0.8 mm 4 m/s 748 mmHg 85%

    Amanhã, 27 Maio, Segunda-feira

    Tempo Temperatura Precipitação Vento Pressão Humidade
    00:00 +18°C° 0.8 mm 4 m/s 749 mmHg 87%
    01:00 +17°C° 0 mm 3 m/s 749 mmHg 88%
    02:00 +17°C° 0 mm 3 m/s 749 mmHg 89%
    03:00 +17°C° 0 mm 3 m/s 750 mmHg 90%
    04:00 +17°C° 0 mm 3 m/s 750 mmHg 90%
    05:00 +17°C° 0 mm 3 m/s 751 mmHg 89%
    06:00 +17°C° 0 mm 3 m/s 751 mmHg 89%
    07:00 +18°C° 0 mm 3 m/s 752 mmHg 81%
    08:00 +20°C° 0 mm 3 m/s 752 mmHg 74%
    09:00 +22°C° 0 mm 3 m/s 752 mmHg 67%
    10:00 +24°C° 0 mm 3 m/s 753 mmHg 61%
    11:00 +25°C° 0 mm 4 m/s 753 mmHg 56%
    12:00 +26°C° 0 mm 4 m/s 753 mmHg 51%
    13:00 +26°C° 0 mm 4 m/s 753 mmHg 50%
    14:00 +26°C° 0 mm 4 m/s 753 mmHg 50%
    15:00 +26°C° 0 mm 4 m/s 753 mmHg 49%
    16:00 +26°C° 0 mm 3 m/s 753 mmHg 51%
    17:00 +26°C° 0 mm 3 m/s 753 mmHg 53%
    18:00 +26°C° 0 mm 2 m/s 753 mmHg 56%
    19:00 +24°C° 0 mm 2 m/s 754 mmHg 58%
    20:00 +22°C° 0 mm 1 m/s 754 mmHg 61%
    21:00 +21°C° 0 mm 1 m/s 754 mmHg 63%
    22:00 +20°C° 0 mm 1 m/s 754 mmHg 65%
    23:00 +20°C° 0 mm 1 m/s 755 mmHg 66%

    Depois de amanhã, 28 Maio, Terça-feira

    Tempo Temperatura Precipitação Vento Pressão Humidade
    00:00 +19°C° 0 mm 1 m/s 755 mmHg 68%
    01:00 +19°C° 0 mm 1 m/s 755 mmHg 69%
    02:00 +18°C° 0 mm 1 m/s 755 mmHg 71%
    03:00 +18°C° 0 mm 1 m/s 755 mmHg 72%
    04:00 +18°C° 0 mm 1 m/s 755 mmHg 73%
    05:00 +19°C° 0 mm 1 m/s 755 mmHg 73%
    06:00 +19°C° 0 mm 1 m/s 755 mmHg 74%
    07:00 +21°C° 0 mm 1 m/s 755 mmHg 69%
    08:00 +23°C° 0 mm 1 m/s 756 mmHg 64%
    09:00 +24°C° 0 mm 2 m/s 756 mmHg 59%
    10:00 +25°C° 0 mm 2 m/s 756 mmHg 55%
    11:00 +26°C° 0 mm 2 m/s 756 mmHg 51%
    12:00 +27°C° 0 mm 2 m/s 756 mmHg 47%
    13:00 +27°C° 0 mm 2 m/s 755 mmHg 48%
    14:00 +27°C° 0 mm 2 m/s 755 mmHg 48%
    15:00 +28°C° 0 mm 2 m/s 755 mmHg 48%
    16:00 +27°C° 0 mm 2 m/s 755 mmHg 51%
    17:00 +27°C° 0 mm 3 m/s 755 mmHg 53%
    18:00 +27°C° 0 mm 3 m/s 754 mmHg 56%
    19:00 +25°C° 0 mm 2 m/s 754 mmHg 60%
    20:00 +24°C° 0 mm 2 m/s 754 mmHg 65%
    21:00 +21°C° 0 mm 2 m/s 754 mmHg 69%
    22:00 +20°C° 0 mm 2 m/s 754 mmHg 71%
    23:00 +20°C° 0 mm 2 m/s 754 mmHg 72%

    29 Maio, Quarta-feira

    Tempo Temperatura Precipitação Vento Pressão Humidade
    00:00 +19°C° 0 mm 3 m/s 754 mmHg 74%
    01:00 +19°C° 0 mm 3 m/s 754 mmHg 75%
    02:00 +18°C° 0 mm 2 m/s 754 mmHg 77%
    03:00 +18°C° 0 mm 2 m/s 754 mmHg 78%
    04:00 +18°C° 0 mm 2 m/s 754 mmHg 78%
    05:00 +18°C° 0 mm 3 m/s 754 mmHg 78%
    06:00 +18°C° 0 mm 3 m/s 754 mmHg 78%
    07:00 +20°C° 0 mm 4 m/s 754 mmHg 72%
    08:00 +22°C° 0 mm 4 m/s 754 mmHg 65%
    09:00 +23°C° 0 mm 5 m/s 754 mmHg 58%
    10:00 +26°C° 0 mm 5 m/s 754 mmHg 55%
    11:00 +27°C° 0 mm 5 m/s 754 mmHg 52%
    12:00 +28°C° 0 mm 5 m/s 754 mmHg 49%
    13:00 +28°C° 0 mm 5 m/s 753 mmHg 48%
    14:00 +29°C° 0 mm 5 m/s 753 mmHg 48%
    15:00 +29°C° 0 mm 5 m/s 753 mmHg 47%
    16:00 +29°C° 0 mm 4 m/s 753 mmHg 50%
    17:00 +28°C° 0 mm 4 m/s 753 mmHg 54%
    18:00 +28°C° 0 mm 3 m/s 753 mmHg 57%
    19:00 +26°C° 0 mm 3 m/s 753 mmHg 61%
    20:00 +25°C° 0 mm 3 m/s 753 mmHg 65%
    21:00 +22°C° 0 mm 3 m/s 753 mmHg 69%
    22:00 +21°C° 0 mm 3 m/s 753 mmHg 69%
    23:00 +20°C° 0 mm 3 m/s 753 mmHg 69%

    30 Maio, Quinta-feira

    Tempo Temperatura Precipitação Vento Pressão Humidade
    00:00 +20°C° 0 mm 3 m/s 752 mmHg 70%
    01:00 +19°C° 0 mm 3 m/s 752 mmHg 71%
    02:00 +19°C° 0 mm 3 m/s 752 mmHg 72%
    03:00 +18°C° 0 mm 3 m/s 752 mmHg 73%
    04:00 +18°C° 0 mm 3 m/s 752 mmHg 73%
    05:00 +19°C° 0 mm 3 m/s 752 mmHg 73%
    06:00 +19°C° 0 mm 3 m/s 752 mmHg 73%
    07:00 +21°C° 0 mm 4 m/s 753 mmHg 69%
    08:00 +23°C° 0 mm 4 m/s 753 mmHg 64%
    09:00 +26°C° 0 mm 4 m/s 753 mmHg 59%
    10:00 +27°C° 0 mm 5 m/s 753 mmHg 54%
    11:00 +28°C° 0 mm 5 m/s 752 mmHg 49%
    12:00 +30°C° 0 mm 5 m/s 752 mmHg 44%
    13:00 +30°C° 0 mm 5 m/s 752 mmHg 43%
    14:00 +30°C° 0 mm 5 m/s 752 mmHg 43%
    15:00 +32°C° 0 mm 5 m/s 752 mmHg 43%
    16:00 +30°C° 0 mm 4 m/s 752 mmHg 47%
    17:00 +30°C° 0 mm 3 m/s 751 mmHg 51%
    18:00 +30°C° 0 mm 3 m/s 751 mmHg 55%
    19:00 +28°C° 0 mm 3 m/s 751 mmHg 58%
    20:00 +26°C° 0 mm 3 m/s 751 mmHg 62%
    21:00 +24°C° 0 mm 3 m/s 751 mmHg 65%
    22:00 +24°C° 0 mm 3 m/s 751 mmHg 65%
    23:00 +22°C° 0 mm 3 m/s 751 mmHg 65%

    31 Maio, Sexta-feira

    Tempo Temperatura Precipitação Vento Pressão Humidade
    00:00 +21°C° 0 mm 3 m/s 751 mmHg 65%
    01:00 +21°C° 0 mm 3 m/s 751 mmHg 66%
    02:00 +21°C° 0 mm 3 m/s 751 mmHg 68%
    03:00 +20°C° 0 mm 3 m/s 751 mmHg 69%
    04:00 +20°C° 0 mm 3 m/s 751 mmHg 70%
    05:00 +21°C° 0 mm 3 m/s 751 mmHg 71%
    06:00 +21°C° 0 mm 3 m/s 751 mmHg 73%
    07:00 +24°C° 0 mm 3 m/s 751 mmHg 68%
    08:00 +26°C° 0 mm 3 m/s 751 mmHg 63%
    09:00 +28°C° 0 mm 4 m/s 751 mmHg 59%
    10:00 +29°C° 0 mm 4 m/s 751 mmHg 53%
    11:00 +32°C° 0 mm 4 m/s 751 mmHg 47%
    12:00 +33°C° 0 mm 4 m/s 751 mmHg 42%
    13:00 +33°C° 0 mm 4 m/s 751 mmHg 41%
    14:00 +33°C° 0 mm 4 m/s 751 mmHg 40%
    15:00 +34°C° 0 mm 4 m/s 751 mmHg 39%
    16:00 +33°C° 0 mm 3 m/s 750 mmHg 43%
    17:00 +31°C° 0 mm 3 m/s 750 mmHg 46%
    18:00 +31°C° 0 mm 2 m/s 750 mmHg 50%
    19:00 +29°C° 0 mm 2 m/s 750 mmHg 51%
    20:00 +28°C° 0 mm 2 m/s 751 mmHg 52%
    21:00 +27°C° 0 mm 2 m/s 751 mmHg 52%
    22:00 +26°C° 0 mm 2 m/s 751 mmHg 54%
    23:00 +26°C° 0 mm 2 m/s 751 mmHg 55%
    Mostrar mais